Regional Weather Roundup
Issued by NWS

Home | Current Version | Previous Version | Text Only | Print | Product List | Glossary On
Versions: 1 2 3 4 5 6 7 8 9 10 11 12 13 14 15 16 17 18 19 20 21 22 23 24 25 26 27 28 29 30 31 32 33 34 35 36 37 38 39 40 41 42 43 44 45 46 47 48 49 50
000
ASUS43 KMPX 230010
RWRMN
WEATHER ROUNDUP FOR MINNESOTA
NATIONAL WEATHER SERVICE TWIN CITIES/CHANHASSEN MN
700 PM CDT TUE JUL 22 2014


NOTE: "FAIR" INDICATES FEW OR NO CLOUDS BELOW 12,000 FEET WITH NO
SIGNIFICANT WEATHER AND/OR OBSTRUCTIONS TO VISIBILITY. N/A MEANS
CURRENT SKY AND/OR WEATHER CONDITIONS ARE NOT AVAILABLE.

MNZ060>063-068>070-230100-
   Twin Cities Metro

CITY           SKY/WX    TMP DP  RH WIND       PRES   REMARKS
TWIN CITIES    MOSUNNY   82  55  39 NW17G24   30.08R
6HR MIN TEMP:  80; 6HR MAX TEMP:  86;

ST PAUL        MOSUNNY   80  57  45 N12       30.08R
CRYSTAL        SUNNY     82  53  36 NW13      30.08R
BLAINE         SUNNY     81  55  41 NW16      30.09R
LAKEVILLE      SUNNY     79  57  47 NW15      30.08R
EDEN PRAIRIE   SUNNY     81  57  43 NW12      30.08R
6HR MIN TEMP:  79; 6HR MAX TEMP:  85;

SOUTH ST PAUL  MOSUNNY   82  56  41 N10       30.07S
LAKE ELMO      FAIR      79  61  53 N9        30.09R
$$
MNZ001>005-007-008-013>017-022>024-027-028-230100-
   Northwest Minnesota

CITY           SKY/WX    TMP DP  RH WIND       PRES   REMARKS
BEMIDJI        SUNNY     73  50  44 N10       30.16S
HALLOCK        SUNNY     75  52  43 NW12      30.18R
ROSEAU         SUNNY     73  57  56 NW8       30.16S
WARROAD        MOSUNNY   75  57  53 NW10G20   30.15S
THIEF RVR FALL PTSUNNY   73  52  46 NW9       30.18S
CROOKSTON      SUNNY     73  57  56 N13       30.19S
FOSSTON        MOSUNNY   73  55  53 N9G16     30.19R
DETROIT LAKES  SUNNY     73  55  53 N7G17     30.20R
MOORHEAD       SUNNY     75  63  64 N9        30.19R
PARK RAPIDS    SUNNY     74  52  46 N14       30.17R
$$
MNZ006-009>011-018-025>026-230100-
   North Central Minnesota

CITY           SKY/WX    TMP DP  RH WIND       PRES   REMARKS
BAUDETTE       SUNNY     74  55  51 NW9       30.15R
FLAG ISLAND    SUNNY     73  54  49 N20       30.14R
INTL FALLS     MOSUNNY   73  51  46 NW12      30.12R
6HR MIN TEMP:  71; 6HR MAX TEMP:  76;

WASKISH        SUNNY     72  54  53 N3        30.15S
BIG FORK       SUNNY     73  52  46 NW6       30.14R
LONGVILLE      SUNNY     73  52  46 N3        30.16R
GRAND RAPIDS   MOSUNNY   73  52  46 N12       30.13R
CRANE LAKE     MOSUNNY   70  54  56 CALM      30.12S
ORR            SUNNY     72  50  46 NW6       30.11R
COOK           SUNNY     72  52  49 N6        30.13R
$$
MNZ012-019>021-037-230100-
   Northeast Minnesota

CITY           SKY/WX    TMP DP  RH WIND       PRES   REMARKS
DULUTH         MOSUNNY   75  55  49 N8        30.10R
6HR MIN TEMP:  74; 6HR MAX TEMP:  79;

ELY            SUNNY     70  52  52 NW8       30.11R
HIBBING        MOSUNNY   75  53  46 N10       30.12R
DULUTH HARBOR  MOSUNNY   66  57  72 N12       30.08R
TWO HARBORS    SUNNY     73  54  49 N7        30.07R
SILVER BAY     SUNNY     72  57  60 N3        30.07R
GRAND MARAIS     N/A     74  53  48 VRB3      30.04R
G MARAIS ARPRT SUNNY     66  48  52 NW5       30.10R
$$
MNZ029>031-032-039>041-046>048-054>057-064-230100-
   West Central Minnesota

CITY           SKY/WX    TMP DP  RH WIND       PRES   REMARKS
FERGUS FALLS   SUNNY     75  52  43 N10G20    30.17S
WHEATON        SUNNY     73  57  56 N10       30.20S
MORRIS         SUNNY     75  57  53 N14       30.17S
ALEXANDRIA     SUNNY     76  54  46 N15G22    30.18S
ELBOW LAKE     FAIR      74  55  51 N14       30.18S
WADENA         SUNNY     72  54  53 N9G17     30.17R
GLENWOOD       SUNNY     75  55  50 NW10      30.18R
APPLETON       SUNNY     81  52  36 N15       30.17R
BENSON         SUNNY     77  57  50 N8        30.16S
ORTONVILLE     SUNNY     79  57  47 N12       30.18S
MADISON        SUNNY     79  55  44 N12       30.18R
WILLMAR        FAIR      79  52  38 NW13      30.16S
$$
MNZ033>034-036-042>043-049>051-058-059-230100-
   Central Minnesota

CITY           SKY/WX    TMP DP  RH WIND       PRES   REMARKS
ST CLOUD       SUNNY     81  53  37 N10G17    30.12R
6HR MIN TEMP:  80; 6HR MAX TEMP:  85;

SAUK CENTRE    FAIR      76  52  42 N10       30.16S
PAYNESVILLE    HVY RAIN  76  50  40 W10       30.16R
AITKIN         SUNNY     75  55  50 NW7       30.12R
PINE RIVER     SUNNY     73  54  49 NW9       30.18R
BRAINERD       SUNNY     74  52  46 N10       30.15R
STAPLES        SUNNY     73  52  46 N10       30.16R
LONG PRAIRIE   FAIR      73  52  46 NW9       30.17R
LITTLE FALLS   SUNNY     77  48  36 NW9       30.14R
LITCHFIELD     SUNNY     79  54  41 NW12G17   30.14S
BUFFALO        SUNNY     80  51  37 N8        30.13R
MAPLE LAKE     SUNNY     79  59  49 NW6       30.13S
$$
MNZ037-044-045-052-053-230100-
   East Central Minnesota

CITY           SKY/WX    TMP DP  RH WIND       PRES   REMARKS
PRINCETON      SUNNY     79  55  44 NW10      30.12R
MORA           MOSUNNY   73  55  53 NW9       30.13R
CAMBRIDGE      SUNNY     81  59  47 NW9       30.09R
RUSH CITY      MOSUNNY   76  58  52 NW7       30.10R
MOOSE LAKE     PTSUNNY   77  54  44 NW6       30.09R
HINCKLEY       FAIR      77  59  53 NW9       30.10R
CLOQUET        MOSUNNY   73  54  49 N8        30.11R
MCGREGOR       SUNNY     75  54  46 NW10      30.13R
$$
MNZ071>073-080-081-089-090-097-098-230100-
   Southwest Minnesota

CITY           SKY/WX    TMP DP  RH WIND       PRES   REMARKS
MONTEVIDEO     SUNNY     79  57  47 N10G16    30.17S
GRANITE FALLS  SUNNY     77  57  49 NW9       30.18R
CANBY          SUNNY     78  56  45 N8        30.19S
MARSHALL       SUNNY     77  54  44 N14       30.16S
REDWOOD FALLS  SUNNY     80  55  42 N13       30.14R
OLIVIA         SUNNY     79  54  41 NW13      30.14S
PIPESTONE      SUNNY     79  55  44 N8        30.19S
WINDOM         SUNNY     79  55  44 NW13      30.16R
WORTHINGTON    SUNNY     77  59  53 N12       30.18S
JACKSON        SUNNY     79  54  41 N9G17     30.15S
TRACY          SUNNY     78  58  50 N10       30.17R
SLAYTON        SUNNY     77  54  45 N12G17    30.19S
$$
MNZ065>067-074>077-082>085-091>093-230100-
   South Central Minnesota

CITY           SKY/WX    TMP DP  RH WIND       PRES   REMARKS
MANKATO        SUNNY     81  57  44 NW13      30.11R
NEW ULM        SUNNY     81  59  47 NW10      30.12R
ST JAMES       SUNNY     81  57  44 NW9       30.13S
FAIRMONT       SUNNY     81  55  41 NW12      30.12S
GLENCOE        SUNNY     80  51  36 NW10G18   30.11R
FARIBAULT      SUNNY     82  54  36 NW8       30.10R
OWATONNA       SUNNY     81  59  47 NW12      30.10R
WASECA         SUNNY     79  55  44 NW9       30.12R
ALBERT LEA     MOSUNNY   81  63  54 NW12G17   30.09S
$$
MNZ078>079-086>088-094>096-230100-
   Southeast Minnesota

CITY           SKY/WX    TMP DP  RH WIND       PRES   REMARKS
ROCHESTER      MOSUNNY   79  64  60 NW13      30.09R
6HR MIN TEMP:  79; 6HR MAX TEMP:  83;

RED WING       SUNNY     82  61  47 NW8       30.06R
STANTON        PTSUNNY   83  60  46 NW13      30.07R
DODGE CENTER   SUNNY     79  64  61 NW10      30.10R
WINONA         PTSUNNY   79  63  57 NW13      30.05R
AUSTIN         SUNNY     81  61  50 NW12      30.09R
PRESTON        SUNNY     78  69  73 N13G20    30.07S
$$
ABBREVIATIONS USED IN REMARKS
   TC - TEMPERATURES IN CELSIUS
  WCI - WIND CHILL INDEX
   HX - HEAT INDEX
  VSB - VISIBILITY
$$


USA.gov is the U.S. government's official web portal to all federal, state and local government web resources and services.